Location: Burgerwiesen
(48.6500°N, 15.6167°E)
Time: 07:59:28
(UTC+00:00)

STARLINK-1243 - Visible Passes

Search period start: 11 August 2020 00:00
Search period end: 21 August 2020 00:00
Orbit: 549 x 550 km, 53.0° (Epoch: 11 August)

Date Brightness Start Highest point End Pass type
(mag) Time Alt. Az. Time Alt. Az. Time Alt. Az.
11 Aug 4.6 19:24:32 10° W 19:28:33 46° N 19:32:34 10° ENE visible
11 Aug 4.1 21:04:31 10° WNW 21:08:36 56° NNE 21:09:54 38° ENE visible
11 Aug 5.7 22:44:11 10° WNW 22:45:31 19° WNW 22:45:31 19° WNW visible
12 Aug 4.6 19:19:09 10° WNW 19:23:08 45° N 19:27:08 10° ENE visible
12 Aug 3.9 20:59:02 10° WNW 21:03:09 63° NNE 21:04:10 46° ENE visible
12 Aug 5.9 22:38:45 10° WNW 22:39:47 16° W 22:39:47 16° W visible
13 Aug 4.6 19:13:44 10° WNW 19:17:44 44° N 19:21:44 10° ENE visible
13 Aug 3.7 20:53:32 10° WNW 20:57:42 73° NNE 20:58:28 55° E visible
13 Aug 6.1 22:33:22 10° WNW 22:34:05 14° W 22:34:05 14° W visible
14 Aug 4.6 19:08:19 10° WNW 19:12:19 45° N 19:16:20 10° ENE visible
14 Aug 3.5 20:48:03 10° WNW 20:52:13 85° NNE 20:52:49 65° ESE visible
14 Aug 6.2 22:28:03 10° W 22:28:26 12° W 22:28:26 12° W visible
15 Aug 4.5 19:02:53 10° WNW 19:06:55 47° N 19:10:56 10° E visible
15 Aug 3.4 20:42:34 10° WNW 20:46:44 81° SSW 20:47:11 68° SE visible
16 Aug 4.3 18:57:26 10° WNW 19:01:30 50° N 19:05:33 10° E visible
16 Aug 3.5 20:37:06 10° WNW 20:41:14 66° SSW 20:41:37 62° S visible
17 Aug 4.1 18:51:59 10° WNW 18:56:04 55° NNE 19:00:09 10° E visible
17 Aug 3.8 20:31:40 10° WNW 20:35:42 53° SW 20:36:04 51° SSW visible
18 Aug 4.0 18:46:31 10° WNW 18:50:38 62° NNE 18:54:45 10° E visible
18 Aug 4.2 20:26:14 10° WNW 20:30:09 42° SW 20:30:34 40° SSW visible
19 Aug 3.8 18:41:02 10° WNW 18:45:12 71° NNE 18:49:20 10° ESE visible
19 Aug 4.6 20:20:51 10° WNW 20:24:34 33° SW 20:25:07 32° SSW visible
20 Aug 3.7 18:35:34 10° WNW 18:39:44 82° NNE 18:43:53 10° ESE visible
20 Aug 5.0 20:15:32 10° W 20:18:59 26° SW 20:19:43 24° SSW visible
